星链-32374 (STARLINK-32374)

导读

STARLINK-32374是美国太空探索技术公司Starlink星座的成员,于2024年11月30日发射。它属于第二代星链卫星,旨在为全球提供高速低延迟互联网服务,尤其覆盖偏远与网络基础设施薄弱区域,依托低轨布局降低信号传输延迟,增强星座服务容量与全球覆盖密度,推动星链系统商业服务与特殊场景应用能力升级。

基本信息
目录编号:
62145
目录名称:
STARLINK-32374
国际标识:
2024-224G
轨道中心:
EARTH
卫星名称:
星链-32374
卫星全名:
星链-32374 (STARLINK-32374)
卫星状态:
在轨 (已飞行564 天)
发射日期:
2024-11-30 UTC
国别 :
美国 (US)
星等 :
--
轨道信息
数据来源 国际轨道数据 AOE轨道数据
星历时间 2026-06-17T10:35:40+0800
20小时前
查看轨道信息
2026-06-15T08:00:00+0800
2天前
查看轨道信息
半长轴 6861.144km 6861.09km
偏心率 0.0000706 0.0001848
轨道倾角 42.998° 43.004°
近地点辐角 306.650° 285.772°
升交点赤经 316.739° 328.647°
平近点角 53.429° 347.670°
近地点 482.522km 481.685km
远地点 483.492km 484.221km
周期 94.266分钟 94.265分钟
每日圈数 15.275943 15.276122
详细信息
固有亮度:
5
最大亮度:
2.5
卫星平台:
Starlink V1.0
覆盖范围:
全球
运营商:
太空探索技术公司
运营商所在国:
美国
制造商(研发单位):
太空探索技术公司
制造商所在国:
美国
使用方式:
暂无
卫星简介
Starlink 计划是 SpaceX 推出的全球卫星互联网项目,通过发射低轨道卫星,为全球尤其是偏远地区提供高速、低延迟的互联网服务。自 2019 年起,Starlink 已部署数千颗卫星,旨在缩小全球数字鸿沟,推动互联网普及。该项目还为军事、航空等行业提供通信支持,带来广泛经济效益。
2D轨道图
3D轨道图
轨道高度分析图
轨道倾角分析图
轨道综合分析图
查看轨道综合分析图